Weather observations for the past three days for
Tucson, Tucson International Airport
Imperial (Metric)
Date Time (mst) Wind (mph) Vis. (mi.) Weather Sky Cond. Temperature (ºF) Relative Humidity Wind Chill (°F) Heat Index (°F) Pressure Precipitation (in)
Air Dwpt 6 hour altimeter (in) sea level (mb) 1 hr 3 hr 6 hr
Max. Min.
20 11:53 Vrbl 5 10.00 Fair CLR 100.9 61 27% 102 30.03 1011.1
20 10:53 W 6 10.00 Fair CLR 97 59 97 82.9 28% 97 30.06 1011.9
20 09:53 W 8 10.00 Fair CLR 95 61 32% 95 30.06 1012.1
20 08:53 W 5 10.00 A Few Clouds FEW120 88 64 45% 89 30.07 1012.7
20 07:53 S 5 10.00 Fair CLR 86 66 51% 88 30.06 1012.3
20 06:53 E 7 10.00 Fair CLR 84 64.9 53% 86 30.04 1011.7
20 05:53 S 3 10.00 Partly Cloudy FEW085 SCT110 82.9 64.9 55% 85 30.02 1011.0
20 04:53 S 5 10.00 Partly Cloudy FEW060 FEW075 SCT110 84 66.9 88 82.9 57% 87 30 1010.2
20 03:53 SE 5 10.00 Fair CLR 84 70 63% 88 30 1010.2
20 02:53 Calm 10.00 Fair CLR 84.9 64.9 51% 87 30 1010.0
20 01:53 NW 3 10.00 Fair CLR 84.9 70 61% 89 30.01 1010.6
20 00:53 E 5 10.00 Fair CLR 86 68 55% 89 30 1010.2
19 23:53 Calm 10.00 Fair CLR 87.1 68 53% 91 30.01 1010.5
19 22:53 SE 6 10.00 Fair CLR 88 66.9 105.1 88 50% 91 30.01 1010.6
19 21:53 SE 7 10.00 Fair CLR 90 61 38% 90 30.01 1010.6
19 20:53 S 8 10.00 Fair CLR 90 60.1 37% 90 30 1010.3
19 19:53 NW 10 G 17 10.00 Fair CLR 91.9 57.9 32% 91 29.98 1009.8
19 18:53 NW 10 G 18 10.00 Thunderstorm FEW110 95 57 28% 94 29.94 1008.3
19 17:53 E 18 G 25 10.00 Partly Cloudy SCT110 100 60.1 27% 101 29.93 1007.9
19 16:53 NW 3 10.00 Fair CLR 104 55 105.1 93.9 20% 103 29.93 1007.7
19 15:53 NW 9 10.00 Fair CLR 104 55.9 20% 103 29.94 1008.0
19 14:53 Calm 10.00 Fair CLR 102.9 55.9 21% 102 29.98 1009.2
19 13:53 Vrbl 3 10.00 Fair CLR 100.9 59 25% 101 30 1010.2
19 12:53 N 5 10.00 Fair CLR 99 60.1 28% 99 30.04 1011.5
19 11:53 Vrbl 3 10.00 Fair CLR 97 62.1 32% 98 30.07 1012.6
19 10:53 Calm 10.00 Fair CLR 95 63 95 80.1 35% 96 30.08 1013.2
19 09:53 SE 3 10.00 Fair CLR 91 62.1 38% 92 30.09 1013.7
19 08:53 Calm 10.00 Fair CLR 89.1 64.9 45% 91 30.1 1014.1
19 07:53 Calm 10.00 Fair CLR 86 66 51% 88 30.1 1014.2
19 06:53 S 7 10.00 Fair CLR 82 66.9 60% 85 30.09 1013.8
19 05:53 E 5 10.00 Fair CLR 81 64 57% 83 30.08 1012.8
19 04:53 S 7 10.00 Fair CLR 81 64.9 84 78.1 58% 83 30.07 1012.4
19 03:53 S 3 10.00 Fair CLR 81 64.9 58% 83 30.05 1011.8
19 02:53 SW 6 10.00 Fair CLR 80.1 66 62% 82 30.01 1010.6
19 01:53 SW 5 10.00 Fair CLR 82.9 64 53% 84 30.02 1010.9
19 00:53 Calm 10.00 Fair CLR 80.1 66.9 64% 82 30.04 1011.4
18 23:53 Vrbl 3 10.00 Fair CLR 81 63 54% 82 30.09 1013.1
18 22:53 E 17 G 25 10.00 Light Rain SCT046 BKN110 81 62.1 106 79 53% 82 30.07 1012.8 0.02 0.57
18 21:53 E 20 G 26 10.00 Thunderstorm Light Rain BKN100 80.1 64 58% 82 30.12 1014.4
18 20:53 E 15 G 22 10.00 Thunderstorm FEW070 FEW110 80.1 68 67% 83 30.11 1014.3 0.06
18 19:53 SE 21 G 36 4.00 Thunderstorm Heavy Rain and Breezy FEW019 BKN048 OVC110 82.9 61 48% 83 30.05 1012.1 0.49 0.49
18 18:53 E 25 G 40 10.00 Thunderstorm and Breezy FEW004 OVC110 88 61 40% 88 30.04 1011.7
18 17:53 NW 12 G 17 10.00 Fair CLR 105.1 55 19% 104 29.94 1007.8
18 16:53 W 13 G 20 10.00 A Few Clouds FEW100 105.1 55 107.1 99 19% 104 29.93 1007.5
18 15:53 Vrbl 5 10.00 Fair CLR 105.1 54 18% 103 29.96 1008.4
18 14:53 Vrbl 3 10.00 Fair CLR 105.1 55 19% 104 29.98 1009.2
18 13:53 NW 9 10.00 Fair CLR 104 55 20% 103 30.01 1010.1
18 12:53 N 10 10.00 Fair CLR 105.1 54 18% 103 30.04 1011.1
18 11:53 Vrbl 5 10.00 Fair CLR 102 54 20% 100 30.06 1012.0
18 10:53 SE 6 10.00 Fair CLR 100 53.1 100 84.9 21% 98 30.07 1012.3
18 09:53 Vrbl 6 10.00 Fair CLR 98.1 57.9 26% 97 30.07 1012.3
18 08:53 Calm 10.00 Fair CLR 93.9 59 31% 93 30.07 1012.4
18 07:53 SW 3 10.00 Fair CLR 90 60.1 37% 90 30.06 1012.1
18 06:53 SE 6 10.00 Fair CLR 88 59 38% 87 30.05 1011.5
18 05:53 S 3 10.00 Fair CLR 84.9 59 42% 85 30.03 1011.1
18 04:53 S 5 10.00 Fair CLR 86 57 93.9 86 37% 85 30.03 1010.9
18 03:53 SW 3 10.00 Fair CLR 87.1 57.9 37% 86 30.01 1010.2
18 02:53 Calm 10.00 Fair CLR 87.1 57.9 37% 86 30.01 1010.3
18 01:53 N 3 10.00 Fair CLR 90 57.9 34% 89 29.99 1009.6
18 00:53 N 6 10.00 Fair CLR 91 57 32% 90 30 1009.7
17 23:53 NW 8 10.00 Fair CLR 91.9 57 31% 91 30 1010.1
17 22:53 NW 6 10.00 Fair CLR 93.9 55.9 105.1 93.9 28% 92 30 1009.8
17 21:53 W 13 10.00 Fair CLR 95 57.9 29% 94 29.98 1009.5
17 20:53 W 12 10.00 Fair CLR 95 59 30% 94 29.97 1009.1
17 19:53 NW 9 10.00 Fair CLR 98.1 57.9 26% 97 29.96 1008.7
17 18:53 NW 9 10.00 A Few Clouds FEW110 102 55 21% 101 29.92 1007.4
17 17:53 N 7 10.00 Fair CLR 105.1 55 19% 104 29.9 1006.7
17 16:53 W 6 10.00 Fair CLR 104 55 106 96.1 20% 103 29.91 1006.8
17 15:53 Vrbl 5 10.00 Fair CLR 104 55 20% 103 29.93 1007.5
17 14:53 N 7 10.00 Fair CLR 102.9 55 20% 102 29.95 1008.3
17 13:53 Vrbl 7 10.00 Fair CLR 102 55.9 22% 101 29.97 1009.1
17 12:53 N 8 10.00 Fair CLR 100 57.9 25% 100 30 1010.0
Date Time (mst) Wind (mph) Vis. (mi.) Weather Sky Cond. Air Dwpt Max. Min. Relative Humidity Wind Chill (°F) Heat Index (°F) altimeter (in) sea level (mb) 1 hr 3 hr 6 hr
6 hour
Temperature (ºF) Pressure Precipitation (in)